Terminal Aerodrome Forecast
Issued by NWS Dallas/Fort Worth, TX

Home | Current Version | Previous Version | Text Only | Print | Product List | Glossary On
Versions: 1 2 3 4 5 6 7 8 9 10 11 12 13 14 15 16 17 18 19 20 21 22 23 24 25 26 27
000
FTUS44 KFWD 180300 AAB
TAFDFW
TAF AMD
KDFW 180306Z 1803/1906 15004KT P6SM SCT100 BKN150
     FM180900 17004KT P6SM VCSH BKN015 BKN140
     FM181500 14005KT P6SM SCT035 BKN150=

USA.gov is the U.S. government's official web portal to all federal, state and local government web resources and services.